Location: La Chapelle
(48.3135°N, 1.3085°W)
Time: 22:03:55
(UTC+00:00)

SPOT 3 Rocket - Pass Details

Date: 03 March 2021
Orbit: 778 x 795 km, 98.7° (Epoch: 20 April)

Event Time Altitude Azimuth Distance (km) Brightness Sun altitude
Exits shadow 20:18:41 63° 65° (ENE) 885 3.5 -24.8°
Drops below altitude 10° 20:23:47 10° 351° (N) 2,375 6.4 -25.6°
Sets 20:26:08 0° 348° (NNW) 3,310 7.2 -25.9°
